Location: Djenane
(35.6000°N, 4.6167°E)
Time: 19:30:41
(UTC+00:00)

Daily predictions for brighter satellites

Satellite Brightness Start Highest point End
(mag) Time Altitude Azimuth Time Altitude Azimuth Time Altitude Azimuth
COBE Rocket 3.9 16:48:44 10° NNE 16:53:17 56° E 16:57:53 10° S
Cosmos 2219 Rocket 2.5 16:47:55 10° SSW 16:53:28 74° WNW 16:59:07 10° NNE
CORIOLIS 4.5 16:51:22 10° SE 16:56:30 46° ENE 17:01:41 10° N
SMAP 3.1 16:58:58 10° SSE 17:03:33 63° ENE 17:08:09 10° N
Cosmos 1844 Rocket 3.4 16:59:54 10° NNW 17:05:23 59° WSW 17:10:51 10° S
Cosmos 1733 Rocket 3.3 17:01:16 10° N 17:05:28 45° E 17:09:40 10° SSE
Cosmos 1980 3.9 17:01:03 10° S 17:06:31 54° ESE 17:12:01 10° NNE
Cosmos 1536 3.9 17:04:18 10° NNE 17:07:32 23° ENE 17:10:45 10° SE
CZ-4 R/B 2.9 17:05:36 10° ESE 17:07:44 14° ENE 17:09:52 10° NE
Cosmos 1500 3.5 17:07:20 10° N 17:10:54 40° E 17:14:26 10° SSE
H-2A R/B 2.6 17:08:16 10° SSE 17:11:57 70° ENE 17:15:38 10° N
Cosmos 1340 4.0 17:08:49 10° NNW 17:12:26 43° W 17:16:01 10° SSW
FALCON 9 DEB 4.1 17:13:20 10° SSW 17:16:31 34° SE 17:18:56 15° ENE
Lacrosse 5 rocket 2.4 17:13:15 10° WSW 17:17:25 43° NW 17:21:23 10° NNE
Aureole 1 Rocket 3.5 17:15:14 10° SSE 17:17:35 20° ESE 17:18:52 16° ENE
COSMOS 2428 3.8 17:13:45 10° SW 17:19:08 45° WNW 17:24:35 10° N
YAOGAN 6 3.6 17:17:16 10° SE 17:20:05 23° ENE 17:22:56 10° NNE
OFEQ 5 4.4 17:19:58 16° E 17:22:05 73° N 17:24:52 10° W
Cosmos 304 Rocket 3.9 17:18:23 10° NNW 17:23:12 82° WSW 17:28:00 10° SSE
IRS-1C Rocket 4.5 17:20:47 10° S 17:26:01 69° WSW 17:31:17 10° NNW
Okean O Rocket 4.5 17:24:11 10° SW 17:27:27 21° W 17:30:45 10° NW
SL-4 R/B 4.2 17:25:52 10° WNW 17:28:07 15° NNW 17:30:29 10° NNE
Cosmos 1302 Rocket 4.3 17:23:02 10° NNW 17:28:17 71° WSW 17:33:29 10° S
Meteor 1-5 Rocket 4.1 17:22:45 10° N 17:28:18 89° E 17:33:39 10° S
Cosmos 2251 Rocket 3.7 17:23:30 10° SSW 17:28:50 76° WNW 17:34:08 10° NNE
Cosmos 1092 Rocket 4.1 17:22:56 10° SSE 17:29:02 53° E 17:35:07 10° NNE
SKYMED 2 3.8 17:25:09 10° NNE 17:29:23 50° E 17:33:35 10° S
NOSS 0 Rocket 4.1 17:23:21 10° SSW 17:29:32 79° WNW 17:35:48 10° NNE
Cosmos 2242 Rocket 3.6 17:28:39 10° S 17:33:09 71° E 17:37:43 10° NNE
ATLAS 5 CENTAUR R/B 2.9 17:31:35 10° WSW 17:34:12 25° WNW 17:35:55 11° N
STARLINK-52 3.8 17:30:56 10° SSW 17:34:14 39° SE 17:35:48 24° ENE
FengYun 1-2 T 4.4 17:30:17 10° SE 17:35:30 47° ENE 17:40:44 10° N
Cosmos 1862 Rocket 4.0 17:31:51 10° SSW 17:36:07 62° W 17:40:27 10° N
Cosmos 1703 Rocket 3.9 17:34:27 10° SSE 17:38:39 43° E 17:42:45 11° NNE
Okean-O 2.5 17:35:28 10° SSE 17:39:53 85° ENE 17:44:20 10° NNW
ERBS 2.3 17:38:16 10° NW 17:41:37 77° SW 17:44:57 10° SE
STARLINK-29 3.3 17:38:57 10° SSW 17:42:24 58° SE 17:43:49 31° ENE
NOSS 2 (A) 4.0 17:40:16 10° NNW 17:42:28 51° NE 17:42:28 51° NE
OAO 3 Rocket 3.3 17:43:58 10° WSW 17:48:39 66° SSE 17:51:06 28° E
Envisat 3.0 17:46:25 10° SSE 17:51:30 85° WSW 17:56:36 10° NNW
OAO 2 Rocket 3.3 17:48:22 10° WSW 17:53:24 76° S 17:55:55 30° E
Cosmos 1666 2.6 17:52:00 10° N 17:55:41 58° E 17:59:20 10° SSE
Cosmos 614 Rocket 4.2 17:52:17 10° S 17:57:06 44° ESE 17:59:00 31° NE
Cosmos 2278 Rocket 2.1 17:53:20 10° NNW 17:59:01 85° ENE 18:04:41 10° SSE
Cosmos 407 Rocket 3.7 17:57:10 10° S 18:02:05 48° ESE 18:03:53 34° NE
BREEZE-M DEB (TANK) 4.0 18:01:41 10° NW 18:04:13 17° N 18:04:16 17° N
SL-16 R/B 2.2 18:01:45 10° S 18:07:19 60° ESE 18:09:56 31° NE
Cosmos 1140 Rocket 4.0 18:02:51 10° SSE 18:07:17 35° ESE 18:07:17 35° ESE
Shenzhou-11 Module 4.4 18:09:57 10° NW 18:10:38 14° NNW 18:10:38 14° NNW
Atlas Centaur 2 3.9 18:04:25 10° W 18:11:56 46° SSW 18:18:52 14° SE
NOAA 15 4.4 18:08:27 10° SSE 18:13:41 76° ENE 18:18:57 10° N
Cosmos 1992 Rocket 4.1 18:08:49 10° NNW 18:14:01 74° WSW 18:19:13 10° S
Geosat 4.4 18:14:43 41° ESE 18:14:50 41° ESE 18:19:33 10° S
Cosmos 1428 Rocket 4.3 18:09:51 10° S 18:15:57 79° E 18:22:10 10° N
Cosmos 1908 Rocket 3.7 18:12:11 10° NNW 18:16:34 71° W 18:20:53 10° S
COSMO-SKYMED 1 3.7 18:13:12 10° N 18:17:18 42° WNW 18:21:23 10° SW
ISS -1.5 18:15:59 10° NNW 18:17:00 17° NNW 18:17:00 17° NNW
Cosmos 1553 Rocket 4.2 18:14:03 10° N 18:20:07 45° E 18:26:13 10° SSE
Cosmos 2237 Rocket 3.6 18:15:01 10° SW 18:20:14 37° WNW 18:25:29 10° N
USA 267 4.5 18:15:09 10° SSE 18:21:13 41° SW 18:27:19 10° WNW
YAOGAN 1 2.4 18:16:54 10° SSE 18:21:13 88° E 18:25:34 10° NNW
ADEOS Rocket 4.5 18:30:17 17° SSE 18:30:17 17° SSE 18:31:44 10° SSE
BREEZE-M DEB (TANK) 4.3 18:26:41 10° NW 18:27:30 15° NNW 18:27:30 15° NNW
Cosmos 2026 Rocket 4.2 18:26:20 10° SSW 18:32:22 66° W 18:38:24 10° N
Cosmos 1900 4.1 18:30:32 10° NNW 18:35:26 90° WSW 18:35:41 80° SSE
Okean 1-7 4.3 18:35:44 10° SSW 18:39:47 40° W 18:42:13 21° NNW
Meteor 1-18 Rocket 4.3 18:36:01 10° SSW 18:41:48 77° W 18:44:37 31° N
CZ-4 R/B 2.9 18:38:50 10° SSW 18:42:27 34° W 18:46:02 10° NNW
Cosmos 1655 Rocket 3.8 18:43:29 10° S 18:49:48 80° E 18:50:25 72° NE
Cosmos 1190 Rocket 4.3 18:47:15 10° SSW 18:52:24 63° WNW 18:52:51 60° NW
CZ-3B R/B 4.1 19:27:03 10° SSW 19:31:48 27° S 19:31:48 27° S
SL-16 R/B 4.5 19:48:03 10° W 19:51:50 18° NW 19:51:52 18° NW
